WMT6767 EGGW-LIPZ

Flight info

Callsign WMT6767
Flight time 2h 7m
Altitude 37000
Route MATCH Q295 BRAIN P44 DAGGA M85 ITVIP L10 DVR UL9 KONAN DCT KOK DCT REMBA DCT LIRSU DCT KRH DCT BATUB M738 TIRUL Y740 NATAG DCT LORLO DCT UNTAD DCT NEGIK/N0341F190 M738 ADOSA L612 ALBET
Aircraft A21N/M-SDE1E2E3FGIJ1J4RWXY/LB1

Departure

Time 2026-05-05 06:54
Airport London Luton Airport (EGGW)

Arrival

Time 2026-05-05 09:01
Airport Venice Marco Polo Airport (LIPZ)
Time Latitude Longitude Altitude Speed Heading
2026-05-05 06:30 51.88081 -0.37322 521 ft 0 kts 342°
2026-05-05 06:40 51.88080 -0.37322 521 ft 1 kts 342°
2026-05-05 06:40 51.88066 -0.37314 521 ft 2 kts 342°
2026-05-05 06:40 51.88051 -0.37306 521 ft 2 kts 342°
2026-05-05 06:41 51.88037 -0.37299 521 ft 2 kts 348°
2026-05-05 06:41 51.88023 -0.37305 521 ft 2 kts 47°
2026-05-05 06:41 51.88019 -0.37316 521 ft 0 kts 75°
2026-05-05 06:41 51.88017 -0.37326 521 ft 0 kts 73°
2026-05-05 06:47 51.88018 -0.37326 521 ft 0 kts 73°
2026-05-05 06:48 51.88020 -0.37311 521 ft 2 kts 73°
2026-05-05 06:48 51.88028 -0.37273 521 ft 4 kts 73°
2026-05-05 06:48 51.88038 -0.37214 521 ft 6 kts 82°
2026-05-05 06:48 51.88024 -0.37149 521 ft 6 kts 134°
2026-05-05 06:49 51.87982 -0.37111 521 ft 7 kts 159°
2026-05-05 06:49 51.87932 -0.37083 521 ft 7 kts 161°
2026-05-05 06:49 51.87881 -0.37056 522 ft 7 kts 162°
2026-05-05 06:49 51.87828 -0.37028 522 ft 8 kts 162°
2026-05-05 06:50 51.87773 -0.36999 523 ft 8 kts 162°
2026-05-05 06:50 51.87715 -0.36968 524 ft 8 kts 162°
2026-05-05 06:50 51.87659 -0.36951 525 ft 8 kts 191°
2026-05-05 06:50 51.87623 -0.37012 525 ft 7 kts 248°
2026-05-05 06:51 51.87606 -0.37097 526 ft 8 kts 254°
2026-05-05 06:51 51.87590 -0.37193 527 ft 9 kts 256°
2026-05-05 06:51 51.87578 -0.37299 527 ft 9 kts 270°
2026-05-05 06:51 51.87571 -0.37402 527 ft 9 kts 214°
2026-05-05 06:52 51.87528 -0.37448 528 ft 5 kts 228°
2026-05-05 06:52 51.87503 -0.37493 528 ft 5 kts 229°
2026-05-05 06:52 51.87475 -0.37545 528 ft 6 kts 229°
2026-05-05 06:52 51.87440 -0.37607 528 ft 8 kts 226°
2026-05-05 06:53 51.87395 -0.37672 529 ft 9 kts 206°
2026-05-05 06:53 51.87350 -0.37628 529 ft 9 kts 109°
2026-05-05 06:53 51.87346 -0.37520 529 ft 10 kts 81°
2026-05-05 06:53 51.87378 -0.37326 529 ft 39 kts 74°
2026-05-05 06:54 51.87540 -0.36431 524 ft 123 kts 74°
2026-05-05 06:54 51.87826 -0.34807 721 ft 166 kts 74°
2026-05-05 06:54 51.88135 -0.32975 1515 ft 175 kts 73°
2026-05-05 06:54 51.88461 -0.31048 2285 ft 190 kts 72°
2026-05-05 06:55 51.88831 -0.28911 3075 ft 207 kts 72°
2026-05-05 06:55 51.89236 -0.26572 3882 ft 226 kts 72°
2026-05-05 06:55 51.89624 -0.24046 4645 ft 247 kts 81°
2026-05-05 06:55 51.89462 -0.21117 5159 ft 282 kts 106°
2026-05-05 06:56 51.88422 -0.18194 5330 ft 322 kts 130°
2026-05-05 06:56 51.86631 -0.15984 5314 ft 324 kts 154°
2026-05-05 06:56 51.84511 -0.15121 5321 ft 306 kts 176°
2026-05-05 06:56 51.82454 -0.14961 5317 ft 288 kts 172°
2026-05-05 06:57 51.80549 -0.14308 5318 ft 276 kts 163°
2026-05-05 06:57 51.78725 -0.13291 5324 ft 276 kts 158°
2026-05-05 06:57 51.76959 -0.12045 5318 ft 275 kts 148°
2026-05-05 06:57 51.75660 -0.09922 5310 ft 270 kts 116°
2026-05-05 06:58 51.75204 -0.07024 5319 ft 265 kts 87°
2026-05-05 06:58 51.75433 -0.04106 5330 ft 263 kts 79°
2026-05-05 06:58 51.75721 -0.01177 5325 ft 263 kts 79°
2026-05-05 06:58 51.75991 0.01753 5321 ft 264 kts 80°
2026-05-05 06:59 51.76248 0.04694 5320 ft 264 kts 81°
2026-05-05 06:59 51.76496 0.07630 5328 ft 264 kts 81°
2026-05-05 06:59 51.76737 0.10535 5324 ft 264 kts 80°
2026-05-05 06:59 51.76981 0.13496 5327 ft 264 kts 81°
2026-05-05 07:00 51.77223 0.16446 5327 ft 264 kts 81°
2026-05-05 07:00 51.77462 0.19382 5329 ft 264 kts 81°
2026-05-05 07:00 51.77701 0.22317 5324 ft 264 kts 80°
2026-05-05 07:00 51.77939 0.25240 5329 ft 264 kts 81°
2026-05-05 07:01 51.78182 0.28225 5576 ft 272 kts 81°
2026-05-05 07:01 51.78424 0.31213 6453 ft 272 kts 81°
2026-05-05 07:01 51.78666 0.34215 7315 ft 273 kts 81°
2026-05-05 07:01 51.78909 0.37260 8054 ft 277 kts 81°
2026-05-05 07:02 51.79156 0.40354 8771 ft 282 kts 81°
2026-05-05 07:02 51.79405 0.43489 9469 ft 287 kts 81°
2026-05-05 07:02 51.79662 0.46731 10180 ft 291 kts 81°
2026-05-05 07:02 51.79918 0.49959 10801 ft 298 kts 81°
2026-05-05 07:03 51.80188 0.53375 11149 ft 314 kts 81°
2026-05-05 07:03 51.80468 0.56956 11640 ft 324 kts 81°
2026-05-05 07:03 51.80749 0.60562 12380 ft 325 kts 81°
2026-05-05 07:03 51.81028 0.64152 13062 ft 327 kts 82°
2026-05-05 07:04 51.81311 0.67807 13690 ft 331 kts 82°
2026-05-05 07:04 51.81594 0.71513 14298 ft 335 kts 84°
2026-05-05 07:04 51.81461 0.75282 14855 ft 339 kts 106°
2026-05-05 07:04 51.80398 0.78648 15445 ft 340 kts 129°
2026-05-05 07:05 51.78618 0.81091 16031 ft 341 kts 152°
2026-05-05 07:05 51.76407 0.82409 16627 ft 341 kts 165°
2026-05-05 07:05 51.74150 0.83451 17192 ft 344 kts 165°
2026-05-05 07:05 51.71852 0.84525 17751 ft 346 kts 164°
2026-05-05 07:06 51.69532 0.85626 18316 ft 348 kts 164°
2026-05-05 07:06 51.67211 0.86741 18892 ft 349 kts 164°
2026-05-05 07:06 51.64899 0.87859 19452 ft 351 kts 164°
2026-05-05 07:06 51.62555 0.88995 19957 ft 353 kts 164°
2026-05-05 07:07 51.60203 0.90136 20448 ft 356 kts 164°
2026-05-05 07:07 51.57826 0.91289 20948 ft 358 kts 164°
2026-05-05 07:07 51.55456 0.92437 21432 ft 360 kts 164°
2026-05-05 07:07 51.53048 0.93604 21942 ft 362 kts 163°
2026-05-05 07:08 51.50647 0.94766 22417 ft 363 kts 163°
2026-05-05 07:08 51.48222 0.95939 22891 ft 365 kts 163°
2026-05-05 07:08 51.45821 0.97100 23342 ft 367 kts 163°
2026-05-05 07:08 51.43366 0.98287 23785 ft 369 kts 163°
2026-05-05 07:09 51.40918 0.99469 24224 ft 371 kts 164°
2026-05-05 07:09 51.38440 1.00665 24645 ft 373 kts 164°
2026-05-05 07:09 51.35972 1.01851 25059 ft 375 kts 164°
2026-05-05 07:09 51.33463 1.03055 25464 ft 377 kts 164°
2026-05-05 07:10 51.30996 1.04364 25835 ft 380 kts 157°
2026-05-05 07:10 51.28722 1.06596 26189 ft 385 kts 142°
2026-05-05 07:10 51.26890 1.09712 26538 ft 391 kts 128°
2026-05-05 07:10 51.25394 1.13317 26920 ft 393 kts 124°
2026-05-05 07:11 51.23919 1.17016 27258 ft 396 kts 124°
2026-05-05 07:11 51.22432 1.20737 27584 ft 399 kts 124°
2026-05-05 07:11 51.20932 1.24449 27928 ft 401 kts 124°
2026-05-05 07:11 51.19432 1.28135 28265 ft 403 kts 125°
2026-05-05 07:12 51.17942 1.31984 28579 ft 407 kts 120°
2026-05-05 07:12 51.16804 1.36116 28891 ft 412 kts 111°
2026-05-05 07:12 51.16074 1.40534 29199 ft 417 kts 102°
2026-05-05 07:12 51.15738 1.45103 29496 ft 420 kts 96°
2026-05-05 07:13 51.15525 1.49700 29811 ft 423 kts 96°
2026-05-05 07:13 51.15325 1.54362 30094 ft 425 kts 96°
2026-05-05 07:13 51.15116 1.59048 30372 ft 428 kts 96°
2026-05-05 07:13 51.14896 1.63814 30649 ft 431 kts 96°
2026-05-05 07:14 51.14669 1.68553 30916 ft 433 kts 97°
2026-05-05 07:14 51.14436 1.73297 31170 ft 435 kts 97°
2026-05-05 07:14 51.14196 1.78105 31432 ft 437 kts 97°
2026-05-05 07:14 51.13952 1.82938 31673 ft 439 kts 97°
2026-05-05 07:15 51.13705 1.87782 31929 ft 441 kts 97°
2026-05-05 07:15 51.13457 1.92605 32167 ft 442 kts 97°
2026-05-05 07:15 51.13205 1.97460 32411 ft 444 kts 97°
2026-05-05 07:15 51.12950 2.02318 32644 ft 446 kts 97°
2026-05-05 07:16 51.12689 2.07226 32879 ft 447 kts 97°
2026-05-05 07:16 51.12427 2.12137 33127 ft 448 kts 98°
2026-05-05 07:16 51.12161 2.17117 33425 ft 448 kts 98°
2026-05-05 07:16 51.11895 2.22027 33756 ft 447 kts 98°
2026-05-05 07:17 51.11630 2.26880 34070 ft 446 kts 98°
2026-05-05 07:17 51.11359 2.31814 34370 ft 445 kts 98°
2026-05-05 07:17 51.11091 2.36682 34655 ft 445 kts 98°
2026-05-05 07:17 51.10819 2.41559 34935 ft 445 kts 99°
2026-05-05 07:18 51.10545 2.46441 35163 ft 444 kts 99°
2026-05-05 07:18 51.10265 2.51328 35340 ft 444 kts 99°
2026-05-05 07:18 51.09986 2.56181 35481 ft 445 kts 99°
2026-05-05 07:18 51.09655 2.61052 35614 ft 444 kts 102°
2026-05-05 07:19 51.09150 2.65894 35729 ft 444 kts 105°
2026-05-05 07:19 51.08470 2.70625 35836 ft 443 kts 109°
2026-05-05 07:19 51.07639 2.75335 35947 ft 443 kts 110°
2026-05-05 07:19 51.06782 2.80032 36049 ft 444 kts 110°
2026-05-05 07:20 51.05931 2.84682 36168 ft 444 kts 110°
2026-05-05 07:20 51.04200 2.94139 36357 ft 447 kts 110°
2026-05-05 07:20 51.03339 2.98833 36483 ft 448 kts 110°
2026-05-05 07:21 51.02470 3.03564 36626 ft 449 kts 110°
2026-05-05 07:21 51.01596 3.08316 36764 ft 449 kts 110°
2026-05-05 07:21 51.00716 3.13088 36906 ft 450 kts 110°
2026-05-05 07:21 50.99832 3.17869 37034 ft 451 kts 110°
2026-05-05 07:22 50.98955 3.22606 37161 ft 451 kts 110°
2026-05-05 07:22 50.98067 3.27379 37276 ft 453 kts 110°
2026-05-05 07:22 50.97183 3.32131 37282 ft 454 kts 110°
2026-05-05 07:23 50.95394 3.41711 37281 ft 454 kts 110°
2026-05-05 07:23 50.93589 3.51326 37279 ft 454 kts 110°
2026-05-05 07:24 50.91791 3.60852 37280 ft 455 kts 110°
2026-05-05 07:24 50.89977 3.70406 37282 ft 454 kts 111°
2026-05-05 07:25 50.88158 3.79935 37283 ft 454 kts 111°
2026-05-05 07:25 50.86321 3.89527 37272 ft 454 kts 111°
2026-05-05 07:26 50.84486 3.99050 37259 ft 453 kts 111°
2026-05-05 07:26 50.82646 4.08547 37250 ft 453 kts 111°
2026-05-05 07:27 50.80789 4.18091 37251 ft 454 kts 111°
2026-05-05 07:27 50.78934 4.27573 37250 ft 454 kts 111°
2026-05-05 07:28 50.77065 4.37081 37256 ft 454 kts 111°
2026-05-05 07:28 50.75187 4.46591 37266 ft 455 kts 111°
2026-05-05 07:29 50.73305 4.56075 37261 ft 456 kts 111°
2026-05-05 07:29 50.71410 4.65577 37266 ft 456 kts 112°
2026-05-05 07:30 50.69503 4.75105 37258 ft 455 kts 112°
2026-05-05 07:30 50.66587 4.89323 37253 ft 454 kts 114°
2026-05-05 07:31 50.64116 4.98419 37253 ft 451 kts 120°
2026-05-05 07:31 50.61429 5.07322 37249 ft 450 kts 120°
2026-05-05 07:32 50.58747 5.16186 37251 ft 451 kts 120°
2026-05-05 07:32 50.56036 5.25129 37250 ft 450 kts 120°
2026-05-05 07:33 50.53340 5.33994 37253 ft 451 kts 120°
2026-05-05 07:33 50.50637 5.42848 37252 ft 451 kts 120°
2026-05-05 07:34 50.47918 5.51729 37253 ft 451 kts 120°
2026-05-05 07:34 50.45211 5.60539 37250 ft 451 kts 120°
2026-05-05 07:35 50.42497 5.69340 37246 ft 450 kts 121°
2026-05-05 07:35 50.39763 5.78175 37238 ft 450 kts 121°
2026-05-05 07:36 50.37031 5.86972 37232 ft 450 kts 121°
2026-05-05 07:36 50.34301 5.95728 37239 ft 449 kts 121°
2026-05-05 07:37 50.31571 6.04455 37223 ft 450 kts 121°
2026-05-05 07:37 50.28805 6.13268 37230 ft 450 kts 121°
2026-05-05 07:38 50.26059 6.21988 37230 ft 450 kts 121°
2026-05-05 07:38 50.25421 6.24009 37231 ft 450 kts 121°
2026-05-05 07:39 50.23671 6.29546 37233 ft 450 kts 121°
2026-05-05 07:39 50.20883 6.38270 37226 ft 449 kts 122°
2026-05-05 07:40 50.17688 6.46518 37227 ft 444 kts 129°
2026-05-05 07:40 50.13965 6.54027 37232 ft 440 kts 135°
2026-05-05 07:41 50.10038 6.61273 37240 ft 440 kts 135°
2026-05-05 07:41 50.06223 6.68298 37247 ft 439 kts 135°
2026-05-05 07:42 50.02311 6.75502 37248 ft 439 kts 135°
2026-05-05 07:42 49.98359 6.82753 37251 ft 440 kts 135°
2026-05-05 07:43 49.94415 6.89975 37244 ft 440 kts 135°
2026-05-05 07:43 49.90478 6.97167 37242 ft 439 kts 135°
2026-05-05 07:44 49.86626 7.04183 37256 ft 439 kts 135°
2026-05-05 07:44 49.82669 7.11372 37258 ft 439 kts 135°
2026-05-05 07:45 49.78721 7.18522 37255 ft 439 kts 135°
2026-05-05 07:45 49.74752 7.25690 37267 ft 440 kts 135°
2026-05-05 07:46 49.70801 7.32808 37261 ft 438 kts 135°
2026-05-05 07:46 49.66830 7.39943 37263 ft 438 kts 135°
2026-05-05 07:47 49.62886 7.47009 37260 ft 437 kts 135°
2026-05-05 07:47 49.58929 7.54079 37257 ft 436 kts 135°
2026-05-05 07:48 49.54972 7.61130 37253 ft 436 kts 135°
2026-05-05 07:48 49.50994 7.68200 37252 ft 435 kts 136°
2026-05-05 07:49 49.47031 7.75223 37243 ft 435 kts 136°
2026-05-05 07:49 49.43052 7.82257 37242 ft 436 kts 136°
2026-05-05 07:50 49.39095 7.89228 37252 ft 435 kts 136°
2026-05-05 07:50 49.35133 7.96197 37254 ft 433 kts 136°
2026-05-05 07:51 49.31176 8.03140 37237 ft 433 kts 136°
2026-05-05 07:51 49.27227 8.10047 37240 ft 432 kts 136°
2026-05-05 07:52 49.23266 8.16954 37241 ft 432 kts 136°
2026-05-05 07:52 49.19293 8.23868 37237 ft 433 kts 136°
2026-05-05 07:53 49.15311 8.30781 37234 ft 432 kts 136°
2026-05-05 07:53 49.11341 8.37655 37235 ft 432 kts 136°
2026-05-05 07:54 49.07379 8.44495 37244 ft 432 kts 136°
2026-05-05 07:54 49.03372 8.51382 37241 ft 432 kts 136°
2026-05-05 07:55 48.99124 8.57748 37238 ft 427 kts 142°
2026-05-05 07:55 48.94504 8.63277 37239 ft 424 kts 148°
2026-05-05 07:56 48.89601 8.68309 37243 ft 424 kts 150°
2026-05-05 07:56 48.84816 8.73215 37240 ft 424 kts 150°
2026-05-05 07:57 48.79936 8.78205 37242 ft 424 kts 150°
2026-05-05 07:57 48.75052 8.83184 37229 ft 424 kts 150°
2026-05-05 07:58 48.70157 8.88162 37233 ft 424 kts 150°
2026-05-05 07:58 48.65237 8.93153 37218 ft 424 kts 150°
2026-05-05 07:59 48.60342 8.98107 37223 ft 425 kts 150°
2026-05-05 07:59 48.55441 9.03056 37217 ft 424 kts 150°
2026-05-05 08:00 48.50528 9.08005 37241 ft 425 kts 150°
2026-05-05 08:00 48.45636 9.12922 37226 ft 425 kts 150°
2026-05-05 08:01 48.40688 9.17882 37223 ft 425 kts 149°
2026-05-05 08:01 48.35768 9.22801 37222 ft 426 kts 149°
2026-05-05 08:02 48.30837 9.27729 37248 ft 426 kts 150°
2026-05-05 08:02 48.25911 9.32633 37229 ft 427 kts 150°
2026-05-05 08:03 48.20962 9.37547 37237 ft 426 kts 150°
2026-05-05 08:03 48.16030 9.42435 37232 ft 426 kts 149°
2026-05-05 08:04 48.11084 9.47329 37243 ft 425 kts 150°
2026-05-05 08:04 48.06155 9.52193 37239 ft 425 kts 150°
2026-05-05 08:05 48.01261 9.57081 37228 ft 426 kts 147°
2026-05-05 08:05 47.96438 9.62294 37231 ft 427 kts 147°
2026-05-05 08:06 47.91701 9.67403 37218 ft 427 kts 148°
2026-05-05 08:06 47.86908 9.72569 37222 ft 428 kts 148°
2026-05-05 08:07 47.82088 9.77751 37219 ft 428 kts 148°
2026-05-05 08:07 47.77247 9.82947 37232 ft 429 kts 148°
2026-05-05 08:08 47.72405 9.88130 37245 ft 429 kts 148°
2026-05-05 08:08 47.67585 9.93279 37256 ft 429 kts 148°
2026-05-05 08:09 47.62716 9.98470 37262 ft 429 kts 148°
2026-05-05 08:09 47.57854 10.03640 37273 ft 430 kts 148°
2026-05-05 08:10 47.53006 10.08787 36995 ft 430 kts 148°
2026-05-05 08:10 47.50604 10.11332 36713 ft 427 kts 148°
2026-05-05 08:10 47.48196 10.13883 36489 ft 424 kts 148°
2026-05-05 08:11 47.45808 10.16405 36271 ft 422 kts 148°
2026-05-05 08:11 47.43411 10.18822 36051 ft 418 kts 150°
2026-05-05 08:11 47.40957 10.21075 35834 ft 417 kts 152°
2026-05-05 08:11 47.38467 10.23351 35605 ft 417 kts 151°
2026-05-05 08:12 47.36021 10.25591 35381 ft 416 kts 151°
2026-05-05 08:12 47.33551 10.27848 35152 ft 416 kts 151°
2026-05-05 08:12 47.31096 10.30080 34927 ft 416 kts 152°
2026-05-05 08:12 47.28628 10.32304 34671 ft 416 kts 152°
2026-05-05 08:13 47.26163 10.34519 34389 ft 417 kts 152°
2026-05-05 08:13 47.23715 10.36718 34110 ft 418 kts 151°
2026-05-05 08:13 47.21222 10.38959 33831 ft 419 kts 152°
2026-05-05 08:13 47.18744 10.41187 33553 ft 420 kts 151°
2026-05-05 08:14 47.16221 10.43451 33269 ft 421 kts 151°
2026-05-05 08:14 47.13737 10.45676 32987 ft 421 kts 152°
2026-05-05 08:14 47.11225 10.47926 32709 ft 421 kts 151°
2026-05-05 08:14 47.08679 10.50080 32426 ft 418 kts 154°
2026-05-05 08:15 47.06095 10.51972 32145 ft 415 kts 158°
2026-05-05 08:15 47.03440 10.53641 31867 ft 412 kts 161°
2026-05-05 08:15 47.00747 10.55067 31588 ft 410 kts 164°
2026-05-05 08:15 46.98039 10.56301 31313 ft 407 kts 165°
2026-05-05 08:16 46.95327 10.57535 31037 ft 406 kts 165°
2026-05-05 08:16 46.92661 10.58750 30765 ft 404 kts 165°
2026-05-05 08:16 46.89987 10.59963 30489 ft 402 kts 165°
2026-05-05 08:16 46.87510 10.61084 30236 ft 400 kts 165°
2026-05-05 08:17 46.84830 10.62293 29955 ft 398 kts 165°
2026-05-05 08:17 46.82179 10.63487 29680 ft 397 kts 165°
2026-05-05 08:17 46.79548 10.64671 29406 ft 395 kts 165°
2026-05-05 08:17 46.76937 10.65844 29131 ft 392 kts 165°
2026-05-05 08:18 46.74318 10.67017 28856 ft 391 kts 166°
2026-05-05 08:18 46.71733 10.68065 28583 ft 389 kts 168°
2026-05-05 08:18 46.69067 10.68951 28303 ft 387 kts 170°
2026-05-05 08:18 46.66466 10.69801 28031 ft 386 kts 169°
2026-05-05 08:19 46.63865 10.70657 27758 ft 385 kts 169°
2026-05-05 08:19 46.61239 10.71518 27481 ft 382 kts 169°
2026-05-05 08:19 46.58651 10.72365 27210 ft 381 kts 169°
2026-05-05 08:19 46.56053 10.73216 26936 ft 380 kts 169°
2026-05-05 08:20 46.53484 10.74056 26665 ft 379 kts 169°
2026-05-05 08:20 46.50924 10.74888 26392 ft 377 kts 169°
2026-05-05 08:20 46.48396 10.75713 26124 ft 376 kts 169°
2026-05-05 08:20 46.45851 10.76541 25857 ft 374 kts 170°
2026-05-05 08:21 46.43301 10.77369 25588 ft 373 kts 170°
2026-05-05 08:21 46.40768 10.78192 25322 ft 371 kts 170°
2026-05-05 08:21 46.38258 10.79006 25056 ft 370 kts 170°
2026-05-05 08:21 46.35733 10.79826 24791 ft 369 kts 170°
2026-05-05 08:22 46.33236 10.80635 24526 ft 367 kts 170°
2026-05-05 08:22 46.30748 10.81440 24264 ft 367 kts 170°
2026-05-05 08:22 46.28261 10.82242 24000 ft 365 kts 170°
2026-05-05 08:22 46.25804 10.83037 23741 ft 364 kts 170°
2026-05-05 08:23 46.23304 10.83843 23476 ft 363 kts 170°
2026-05-05 08:23 46.20846 10.84634 23222 ft 361 kts 170°
2026-05-05 08:23 46.18391 10.85421 22966 ft 360 kts 170°
2026-05-05 08:23 46.15959 10.86205 22715 ft 358 kts 170°
2026-05-05 08:24 46.13530 10.86985 22456 ft 357 kts 170°
2026-05-05 08:24 46.11126 10.87757 22203 ft 356 kts 170°
2026-05-05 08:24 46.08715 10.88530 21944 ft 355 kts 170°
2026-05-05 08:24 46.06297 10.89305 21699 ft 353 kts 170°
2026-05-05 08:25 46.03893 10.90075 21440 ft 353 kts 170°
2026-05-05 08:25 46.01512 10.90839 21200 ft 352 kts 170°
2026-05-05 08:25 45.99122 10.91604 20950 ft 351 kts 170°
2026-05-05 08:25 45.96749 10.92362 20699 ft 350 kts 170°
2026-05-05 08:26 45.94373 10.93120 20443 ft 349 kts 170°
2026-05-05 08:26 45.91986 10.93882 20188 ft 348 kts 169°
2026-05-05 08:26 45.89813 10.94575 19956 ft 347 kts 169°
2026-05-05 08:26 45.87378 10.95351 19694 ft 347 kts 169°
2026-05-05 08:27 45.85035 10.96098 19445 ft 345 kts 169°
2026-05-05 08:27 45.82695 10.96843 19194 ft 343 kts 169°
2026-05-05 08:27 45.80390 10.97575 18946 ft 342 kts 169°
2026-05-05 08:27 45.78048 10.98318 18692 ft 340 kts 169°
2026-05-05 08:28 45.75756 10.99046 18443 ft 339 kts 169°
2026-05-05 08:28 45.73448 10.99778 18187 ft 338 kts 170°
2026-05-05 08:28 45.71151 11.00505 17951 ft 338 kts 170°
2026-05-05 08:28 45.68865 11.01229 17700 ft 336 kts 170°
2026-05-05 08:29 45.66613 11.01993 17458 ft 336 kts 165°
2026-05-05 08:29 45.64526 11.03525 17207 ft 341 kts 146°
2026-05-05 08:29 45.62872 11.05977 16947 ft 346 kts 128°
2026-05-05 08:30 45.60287 11.11771 16469 ft 345 kts 126°
2026-05-05 08:30 45.59012 11.14667 16200 ft 344 kts 126°
2026-05-05 08:30 45.57733 11.17541 15961 ft 342 kts 126°
2026-05-05 08:30 45.56438 11.20429 15728 ft 341 kts 126°
2026-05-05 08:31 45.55158 11.23276 15473 ft 340 kts 126°
2026-05-05 08:31 45.53897 11.26077 15229 ft 339 kts 126°
2026-05-05 08:31 45.52618 11.28915 14982 ft 337 kts 126°
2026-05-05 08:31 45.51347 11.31732 14754 ft 337 kts 126°
2026-05-05 08:32 45.50078 11.34543 14499 ft 336 kts 127°
2026-05-05 08:32 45.48821 11.37324 14245 ft 335 kts 127°
2026-05-05 08:32 45.47545 11.40144 13991 ft 335 kts 127°
2026-05-05 08:32 45.46282 11.42927 13730 ft 333 kts 127°
2026-05-05 08:33 45.45025 11.45695 13520 ft 332 kts 127°
2026-05-05 08:33 45.43774 11.48448 13254 ft 331 kts 127°
2026-05-05 08:33 45.42447 11.51096 12887 ft 327 kts 131°
2026-05-05 08:33 45.40983 11.53563 12788 ft 322 kts 135°
2026-05-05 08:34 45.39492 11.55930 12830 ft 323 kts 135°
2026-05-05 08:34 45.37971 11.58339 12854 ft 324 kts 136°
2026-05-05 08:34 45.36469 11.60711 12506 ft 325 kts 136°
2026-05-05 08:34 45.35048 11.63190 12064 ft 329 kts 124°
2026-05-05 08:35 45.34325 11.66296 11619 ft 336 kts 99°
2026-05-05 08:35 45.34390 11.69638 11233 ft 336 kts 89°
2026-05-05 08:35 45.34589 11.72955 10828 ft 334 kts 88°
2026-05-05 08:35 45.34777 11.76226 10433 ft 332 kts 89°
2026-05-05 08:36 45.34943 11.79475 10132 ft 325 kts 89°
2026-05-05 08:36 45.35015 11.82609 9934 ft 311 kts 100°
2026-05-05 08:36 45.34321 11.85347 9733 ft 289 kts 129°
2026-05-05 08:36 45.33021 11.87457 9386 ft 282 kts 138°
2026-05-05 08:37 45.31676 11.89448 9146 ft 274 kts 140°
2026-05-05 08:37 45.30109 11.90762 8984 ft 253 kts 172°
2026-05-05 08:37 45.28411 11.90642 8942 ft 241 kts 200°
2026-05-05 08:37 45.26984 11.89430 8982 ft 243 kts 221°
2026-05-05 08:38 45.25726 11.87786 8997 ft 243 kts 221°
2026-05-05 08:38 45.24482 11.86192 8998 ft 242 kts 221°
2026-05-05 08:38 45.23224 11.84600 8982 ft 241 kts 221°
2026-05-05 08:38 45.21969 11.83016 8997 ft 241 kts 221°
2026-05-05 08:39 45.20715 11.81443 9004 ft 240 kts 221°
2026-05-05 08:39 45.19450 11.79855 8998 ft 239 kts 221°
2026-05-05 08:39 45.18211 11.78301 8988 ft 239 kts 221°
2026-05-05 08:39 45.16960 11.76731 9006 ft 239 kts 221°
2026-05-05 08:40 45.15712 11.75171 9002 ft 238 kts 222°
2026-05-05 08:40 45.14465 11.73610 8989 ft 238 kts 222°
2026-05-05 08:40 45.13220 11.72048 8967 ft 239 kts 221°
2026-05-05 08:40 45.11860 11.70817 8984 ft 231 kts 197°
2026-05-05 08:41 45.10248 11.70923 8978 ft 237 kts 163°
2026-05-05 08:41 45.08881 11.72301 8989 ft 248 kts 136°
2026-05-05 08:41 45.07766 11.74152 8990 ft 248 kts 135°
2026-05-05 08:41 45.06711 11.76074 8989 ft 253 kts 122°
2026-05-05 08:42 45.06395 11.78580 8974 ft 267 kts 83°
2026-05-05 08:42 45.07177 11.80930 8986 ft 270 kts 48°
2026-05-05 08:42 45.08586 11.82677 8993 ft 271 kts 36°
2026-05-05 08:42 45.10106 11.84265 8984 ft 267 kts 36°
2026-05-05 08:43 45.11572 11.85867 8994 ft 263 kts 39°
2026-05-05 08:43 45.12993 11.87536 9082 ft 264 kts 40°
2026-05-05 08:43 45.14369 11.89217 8995 ft 261 kts 41°
2026-05-05 08:43 45.15868 11.90630 8572 ft 262 kts 21°
2026-05-05 08:44 45.17648 11.90929 8093 ft 256 kts 350°
2026-05-05 08:44 45.19221 11.89965 7768 ft 240 kts 318°
2026-05-05 08:44 45.20243 11.88238 7506 ft 219 kts 292°
2026-05-05 08:44 45.20442 11.86251 7215 ft 198 kts 256°
2026-05-05 08:45 45.19851 11.84567 6840 ft 188 kts 231°
2026-05-05 08:45 45.19040 11.83135 6369 ft 188 kts 228°
2026-05-05 08:45 45.18173 11.81745 5880 ft 188 kts 220°
2026-05-05 08:45 45.17022 11.81063 5402 ft 182 kts 174°
2026-05-05 08:46 45.15870 11.81785 5330 ft 184 kts 142°
2026-05-05 08:46 45.15155 11.83281 5239 ft 187 kts 112°
2026-05-05 08:46 45.15125 11.85134 5150 ft 193 kts 78°
2026-05-05 08:46 45.15665 11.86889 5103 ft 195 kts 68°
2026-05-05 08:47 45.16245 11.88621 5078 ft 194 kts 68°
2026-05-05 08:47 45.16820 11.90373 5048 ft 194 kts 69°
2026-05-05 08:47 45.17395 11.92096 4972 ft 194 kts 66°
2026-05-05 08:47 45.18134 11.93730 4968 ft 197 kts 56°
2026-05-05 08:48 45.19061 11.95165 4957 ft 197 kts 46°
2026-05-05 08:48 45.20076 11.96468 4955 ft 197 kts 44°
2026-05-05 08:48 45.21061 11.97817 4958 ft 196 kts 51°
2026-05-05 08:48 45.21927 11.99334 4977 ft 196 kts 55°
2026-05-05 08:49 45.22756 12.00869 4970 ft 197 kts 55°
2026-05-05 08:49 45.23598 12.02417 4959 ft 196 kts 55°
2026-05-05 08:49 45.24435 12.03943 4964 ft 196 kts 54°
2026-05-05 08:49 45.25286 12.05475 4963 ft 196 kts 54°
2026-05-05 08:50 45.26128 12.06981 4958 ft 196 kts 54°
2026-05-05 08:50 45.26981 12.08501 4955 ft 196 kts 54°
2026-05-05 08:50 45.27828 12.10008 4962 ft 196 kts 54°
2026-05-05 08:50 45.28677 12.11520 4968 ft 196 kts 55°
2026-05-05 08:51 45.29525 12.13028 4971 ft 196 kts 54°
2026-05-05 08:51 45.30380 12.14548 4973 ft 196 kts 54°
2026-05-05 08:51 45.31233 12.16066 4976 ft 196 kts 54°
2026-05-05 08:51 45.32087 12.17588 4979 ft 196 kts 54°
2026-05-05 08:52 45.32929 12.19087 4977 ft 196 kts 54°
2026-05-05 08:52 45.33775 12.20592 4978 ft 195 kts 55°
2026-05-05 08:52 45.34628 12.22110 4985 ft 196 kts 55°
2026-05-05 08:52 45.35477 12.23628 4986 ft 197 kts 54°
2026-05-05 08:53 45.36332 12.25157 4987 ft 196 kts 54°
2026-05-05 08:53 45.37186 12.26683 4986 ft 195 kts 54°
2026-05-05 08:53 45.38022 12.28176 4987 ft 195 kts 54°
2026-05-05 08:53 45.38874 12.29693 4988 ft 195 kts 54°
2026-05-05 08:54 45.39721 12.31205 4965 ft 194 kts 54°
2026-05-05 08:54 45.40566 12.32716 4792 ft 195 kts 55°
2026-05-05 08:54 45.41400 12.34213 4549 ft 194 kts 54°
2026-05-05 08:54 45.42245 12.35725 4300 ft 194 kts 54°
2026-05-05 08:55 45.43082 12.37226 4048 ft 192 kts 54°
2026-05-05 08:55 45.43910 12.38708 3805 ft 190 kts 54°
2026-05-05 08:55 45.44732 12.40181 3556 ft 190 kts 55°
2026-05-05 08:55 45.45549 12.41647 3310 ft 190 kts 55°
2026-05-05 08:56 45.46363 12.43108 3062 ft 188 kts 55°
2026-05-05 08:56 45.47175 12.44568 2814 ft 188 kts 54°
2026-05-05 08:56 45.47982 12.46020 2567 ft 187 kts 54°
2026-05-05 08:56 45.48789 12.47471 2319 ft 186 kts 54°
2026-05-05 08:57 45.49594 12.48904 2075 ft 185 kts 52°
2026-05-05 08:57 45.50692 12.49821 1970 ft 190 kts
2026-05-05 08:57 45.52016 12.49488 2005 ft 193 kts 343°
2026-05-05 08:57 45.53297 12.48842 1998 ft 194 kts 340°
2026-05-05 08:58 45.54571 12.48212 1991 ft 194 kts 342°
2026-05-05 08:58 45.55862 12.47636 1896 ft 193 kts 343°
2026-05-05 08:58 45.57133 12.47111 1827 ft 192 kts 343°
2026-05-05 08:58 45.58281 12.46138 1768 ft 192 kts 307°
2026-05-05 08:59 45.58576 12.44366 1731 ft 188 kts 259°
2026-05-05 08:59 45.57875 12.42894 1531 ft 181 kts 213°
2026-05-05 08:59 45.56760 12.42064 1303 ft 180 kts 202°
2026-05-05 08:59 45.55645 12.41268 1056 ft 180 kts 207°
2026-05-05 09:00 45.54599 12.40273 818 ft 181 kts 215°
2026-05-05 09:00 45.53603 12.39162 582 ft 181 kts 218°
2026-05-05 09:00 45.52674 12.37967 347 ft 180 kts 221°
2026-05-05 09:00 45.51741 12.36755 108 ft 178 kts 221°
2026-05-05 09:01 45.50875 12.35664 14 ft 153 kts 221°
2026-05-05 09:01 45.50197 12.34782 13 ft 107 kts 219°
2026-05-05 09:01 45.49765 12.34230 14 ft 59 kts 221°
2026-05-05 09:01 45.49596 12.34014 13 ft 0 kts 223°
2026-05-05 09:02 45.49570 12.33978 13 ft 24 kts 225°
2026-05-05 09:02 45.49517 12.33783 13 ft 21 kts 324°
2026-05-05 09:02 45.49637 12.33719 13 ft 18 kts 10°
2026-05-05 09:02 45.49748 12.33801 13 ft 17 kts 21°
2026-05-05 09:03 45.49866 12.33842 13 ft 17 kts 14°
2026-05-05 09:03 45.49964 12.33930 13 ft 16 kts 41°
2026-05-05 09:03 45.50038 12.33992 14 ft 0 kts 355°
2026-05-05 09:03 45.50059 12.33981 13 ft 5 kts 328°
2026-05-05 09:04 45.50080 12.33956 13 ft 0 kts 315°
2026-05-05 09:04 45.50081 12.33955 13 ft 0 kts 315°